Location: F?ge?el
(45.8833°N, 22.5833°E)
Time: 08:22:45
(UTC+00:00)

Cosmos 2026 Rocket - Pass Details

Date: 17 November 2025
Orbit: 938 x 1000 km, 82.9° (Epoch: 13 December)

Event Time Altitude Azimuth Distance (km) Brightness Sun altitude
Rises 17:51:01 0° 348° (NNW) 3,614 7.2 -30.3°
Reaches altitude 10° 17:53:32 10° 344° (NNW) 2,669 6.5 -30.7°
Maximum altitude 17:59:29 59° 268° (W) 1,093 4.4 -31.7°
Drops below altitude 10° 18:05:28 10° 190° (S) 2,684 6.3 -32.8°
Sets 18:08:00 0° 186° (S) 3,635 7.0 -33.2°
